Regional Weather Roundup
Issued by NWS Kansas City/Pleasant Hill, MO

Home | Current Version | Previous Version | Graphics & Text | Print | Product List | Glossary Off
Versions: 1 2 3 4 5 6 7 8 9 10 11 12 13 14 15 16 17 18 19 20 21 22 23 24 25 26 27 28 29 30 31 32 33 34 35 36 37 38 39 40 41 42 43 44 45 46 47 48 49 50

000
ASUS43 KEAX 180211
RWREAX

WEATHER ROUNDUP FOR EASTERN KANSAS AND NORTHWEST MISSOURI
NATIONAL WEATHER SERVICE KANSAS CITY/PLEASANT HILL MO
800 PM CST WED DEC 17 2014

KSZ040-057-103>105-MOZ028-029-037-043-180300-
...KANSAS CITY METROPOLITAN AREA...

CITY           SKY/WX    TMP DP  RH WIND       PRES   REMARKS
K.C. INTL      CLOUDY    30  22  72 SE8       30.26R WCI  22
K.C. DOWNTOWN  CLOUDY    31  22  69 E6        30.28R WCI  25
LEES SUMMIT    CLOUDY    30  22  72 E6        30.27R WCI  24
OLATHE - IXD   CLOUDY    30  22  72 SE6       30.25S WCI  24
OLATHE - OJC   CLOUDY    30  21  69 E3        30.24F
LAWRENCE       CLOUDY    30  22  72 E3        30.27S

$$

MOZ001>008-011>017-020>025-030>033-038>040-044>046-053-054-180300-
...NORTHERN AND CENTRAL MISSOURI...

CITY           SKY/WX    TMP DP  RH WIND       PRES   REMARKS
ST. JOSEPH     CLOUDY    30  21  69 E7        30.27S WCI  23
MOSBY          CLOUDY    32  23  69 SE3       30.28R
WARRENSBURG    CLOUDY    30  23  74 NE3       30.27F
WHITEMAN AFB   CLOUDY    31  24  74 E2        30.26F
CLINTON        CLOUDY    32  28  86 CALM      30.28F
SEDALIA        CLOUDY    32  24  72 SE3       30.29R
WARSAW         NOT AVBL
MARSHALL       CLOUDY    32  27  80 NE3       30.29S
CHILLICOTHE      N/A     30  21  69 NE3       30.29S
MOBERLY        CLOUDY    30  23  74 NE5       30.29R WCI  25
KIRKSVILLE     CLOUDY    25  22  88 CALM      30.29R

$$

MOZ041-047>049-056>058-063>065-088>090-097-180300-
...EASTERN AND SOUTHERN MISSOURI...

CITY           SKY/WX    TMP DP  RH WIND       PRES   REMARKS
ST. LOUIS INTL MOCLDY    33  25  72 NE6       30.29S WCI  28
SPIRIT OF STL  CLOUDY   N/A N/A N/A NE5       30.28S
COLUMBIA       CLOUDY    32  26  78 E5        30.28R WCI  27
JEFFERSON CITY CLOUDY    35  23  61 NE3       30.29R
MEXICO         CLOUDY    32  30  93 NE3       30.28S
HANNIBAL       PTCLDY    25  19  80 CALM      30.30R
ROLLA          CLOUDY    34  24  67 NE3       30.24R
OSAGE BEACH    CLOUDY    34  21  60 CALM      30.27R
SPRINGFIELD    RAIN      33  31  92 E7        30.23R FOG     WCI  27
BRANSON        LGT RAIN  32  32 100 CALM      30.24S
NEVADA         MIX PCPN  30  28  93 E9        30.24F WCI  22
JOPLIN         LGT RAIN  32  31  96 E7        30.22F FOG     WCI  26
WEST PLAINS    LGT RAIN  35  31  85 CALM      30.24R

$$

IAZ060-094-KSZ022-034>040-054-083-096-NEZ052-066-093-180300-
...KANSAS...SOUTHEAST NEBRASKA AND IOWA...

CITY           SKY/WX    TMP DP  RH WIND       PRES   REMARKS
TOPEKA         CLOUDY    31  21  66 E7        30.25F WCI  24
MANHATTAN      CLOUDY    29  22  75 E6        30.23S WCI  23
EMPORIA        LGT SNOW  28  27  96 E7        30.21F VSB 1   WCI  21
CHANUTE        FRZ RAIN  31  29  92 E8        30.23F FOG     WCI  23
WICHITA        LGT SNOW  31  28  89 E9        30.16F FOG     WCI  23
OMAHA          CLOUDY    28  18  66 E5        30.27S WCI  23
LINCOLN        CLOUDY    26  17  68 E8        30.26R WCI  18
FALLS CITY     CLOUDY    29  21  72 E3        30.26R
LAMONI         CLOUDY    27  18  69 E5        30.27R WCI  22
DES MOINES     CLEAR     24  16  71 NE5       30.29R WCI  18

$$



USA.gov is the U.S. government's official web portal to all federal, state and local government web resources and services.